Location: Glion
(46.4330°N, 6.9246°E)
Time: 05:07:15
(UTC+00:00)

SL-16 R/B - Pass Details

Date: 03 March 2021
Orbit: 843 x 845 km, 71.0° (Epoch: 22 April)

Event Time Altitude Azimuth Distance (km) Brightness Sun altitude
Rises 19:31:17 0° 243° (WSW) 3,394 6.1 -23.0°
Reaches altitude 10° 19:34:08 10° 256° (WSW) 2,463 5.4 -23.5°
Maximum altitude 19:38:48 26° 312° (NW) 1,615 4.3 -24.2°
Drops below altitude 10° 19:43:30 10° 8° (N) 2,476 4.7 -25.0°
Sets 19:46:23 0° 21° (NNE) 3,415 5.3 -25.5°
